Location: De Greiden
(52.9496°N, 5.9137°E)
Time: 01:47:28
(UTC+00:00)

Cosmos 1428 Rocket - Pass Details

Date: 24 January 2021
Orbit: 947 x 988 km, 82.9° (Epoch: 26 February)

Event Time Altitude Azimuth Distance (km) Brightness Sun altitude
Rises 18:15:55 0° 179° (S) 3,679 7.6 -19.1°
Reaches altitude 10° 18:18:26 10° 177° (S) 2,738 6.9 -19.5°
Maximum altitude 18:24:40 70° 96° (E) 1,050 4.4 -20.5°
Drops below altitude 10° 18:30:58 10° 14° (NNE) 2,761 6.7 -21.4°
Sets 18:33:31 0° 12° (NNE) 3,712 7.4 -21.8°
